Regional Weather Roundup
Issued by NWS

Home | Current Version | Previous Version | Graphics & Text | Print | Product List | Glossary On
Versions: 1 2 3 4 5 6 7 8 9 10 11 12 13 14 15 16 17 18 19 20 21 22 23 24 25 26 27
000
ASUS45 KSLC 240710
RWRUT

UTAH REGIONAL WEATHER ROUNDUP
NATIONAL WEATHER SERVICE SALT LAKE CITY UT
1200 AM MST SAT FEB 24 2018

UTZ001>011-023>025-240800-

NORTHERN UTAH

CITY           SKY/WX    TMP DP  RH WIND       PRES   REMARKS
BRIGHAM CITY   CLEAR     14   9  80 NW6       30.17S WCI   5
HILL AFB       CLOUDY    14  12  92 SE5       30.13F WCI   6
LOGAN          CLEAR      9   3  77 CALM      30.16S
OGDEN          PTCLDY    12   9  87 S7        30.15F WCI   1
SALT LAKE CITY LGT SNOW  21  17  84 S3        30.17F FOG
WENDOVER       PTCLDY    25   4  40 W13       30.18S WCI  14
HEBER CITY       N/A     10   5  79 E3        30.09S
WEST JORDAN    CLEAR     12  10  92 CALM      30.16F

$$

UTZ011>015-024>027-240800-

CENTRAL/NORTHEAST UTAH

CITY           SKY/WX    TMP DP  RH WIND       PRES   REMARKS
PROVO AIRPORT  CLOUDY    19  16  88 SE5       30.18F WCI  12
MOAB/CANYONLAN CLEAR     25  11  55 W20       30.00S WCI  11
DELTA          PTCLDY    10   9  92 S8        30.17F WCI  -1
PRICE          CLEAR     15   5  64 NW5       30.01R WCI   8
RICHFIELD      CLOUDY    21  14  73 SW6       30.15  WCI  14
VERNAL         CLOUDY    13   9  84 W6        29.98S WCI   4

$$

UTZ013>016-019>022-027-240800-

SOUTHERN UTAH

CITY           SKY/WX    TMP DP  RH WIND       PRES   REMARKS
BRYCE CANYON   PTCLDY     3   1  91 N8        30.03R WCI -10
CEDAR CITY     PTCLDY     8   5  87 NE6       30.14R WCI  -2
MILFORD        PTCLDY    10   5  80 CALM      30.17S
ST GEORGE      SUNNY     31  25  78 SE9       30.22R WCI  23
HANKSVILLE     PTCLDY    23   9  54 W6        30.09S WCI  16
KANAB          CLEAR     19  10  68 W6        30.17  WCI  11
BLANDING         N/A     17  13  83 W6        30.04S WCI   9

$$

REGIONAL REPORTS     COLORADO/ARIZONA

CITY           SKY/WX    TMP DP  RH WIND       PRES   REMARKS
CRAIG, CO      CLOUDY    16   9  74 VRB3      29.95R
GRAND JUNCTION PTCLDY    26  24  92 CALM      29.97S
RIFLE, CO      CLOUDY    25  23  92 W8        29.94S WCI  16
MONTROSE, CO   CLOUDY    22  20  92 S6        29.97S WCI  14
CORTEZ, CO     LGT SNOW  22  21  96 CALM      29.97F FOG
COLORADO CITY    N/A     27  16  63 NW15      30.15R WCI  15
PAGE, AZ       CLEAR     31  13  47 W9G18     30.06R WCI  23
GRAND CANYON   PTCLDY     6   4  91 CALM      30.04S
KINGMAN, AZ    CLEAR     25  22  88 SW5       30.20R WCI  19
FLAGSTAFF, AZ  CLEAR     16  12  84 CALM      30.01R

$$

REGIONAL REPORTS    NEVADA/IDAHO/WYOMING

CITY           SKY/WX    TMP DP  RH WIND       PRES   REMARKS
LAS VEGAS, NV  CLEAR     42   7  23 N13       30.25R
ELY, NY        CLEAR      8   0  69 W5        30.16F WCI   0
ELKO, NV       CLOUDY    14  10  84 SW5       30.21F WCI   6
POCATELLO, ID  PTCLDY    19   9  65 SW20      30.10F WCI   3
BURLEY, ID     CLOUDY    18   9  68 SW9       30.13F WCI   7
EVANSTON, WY   MOCLDY     4   2  91 SW10      29.99F WCI -11
ROCK SPRINGS,  MOCLDY    11   4  73 SW21      29.92S WCI  -8

$$




USA.gov is the U.S. government's official web portal to all federal, state and local government web resources and services.